COSMOS 2544 (759)

Last updated on July 6, 2021, 3:40 p.m. UTC

1 44850U 19088A   21186.67757806  .00000002  00000-0  00000-0 0  9993
2 44850  64.8882 134.3171 0013677 266.2978 276.8465  2.13102285 12187
UTC
Height (km)
Latitude
Longitude
Inclination
Orbital Period
UTC large
Height (km)
Speed (km/s)
/
Latitude / Longitude
Inclination (degrees)
Orbital Period (minutes)
Azimuth
Elevation
Range (km)
Doppler Factor
iOS Compass Heading
iOS Angle